Location: Baia Mare
(47.6567°N, 23.5850°E)
Time: 13:26:47
(UTC+02:00)

ISS - Pass Details

Date: 07 December 2018
Orbit: 401 x 408 km, 51.6° (Epoch: 16 December)

Event Time Altitude Azimuth Distance (km) Brightness Sun altitude
Rises 19:29:30 0° 292° (WNW) 2,318 1.0 -28.5°
Reaches altitude 10° 19:31:37 10° 287° (WNW) 1,456 -0.2 -28.9°
Enters shadow 19:32:19 15° 284° (WNW) 1,182 -0.7 -29.0°
